TimeEDT,TemperatureF,Dew PointF,Humidity,Sea Level PressureIn,VisibilityMPH,Wind Direction,Wind SpeedMPH,Gust SpeedMPH,PrecipitationIn,Events,Conditions,WindDirDegrees,DateUTC
12:54 AM,59.0,53.1,81,29.93,10.0,South,4.6,-,N/A,,Clear,190,2012-10-15 04:54:00
1:54 AM,60.1,54.0,80,29.91,10.0,SSW,8.1,-,N/A,,Clear,200,2012-10-15 05:54:00
2:54 AM,59.0,54.0,83,29.88,10.0,SSW,5.8,-,N/A,,Clear,210,2012-10-15 06:54:00
3:54 AM,60.1,54.0,80,29.86,10.0,SSW,8.1,-,N/A,,Clear,200,2012-10-15 07:54:00
4:54 AM,61.0,55.0,81,29.85,10.0,SSW,10.4,-,N/A,,Clear,210,2012-10-15 08:54:00
5:54 AM,61.0,55.0,81,29.83,10.0,South,8.1,-,N/A,,Clear,190,2012-10-15 09:54:00
6:54 AM,62.1,55.9,80,29.81,10.0,South,5.8,-,N/A,,Clear,190,2012-10-15 10:54:00
7:54 AM,64.4,57.2,77,29.79,10.0,South,9.2,-,N/A,,Clear,180,2012-10-15 11:54:00
8:54 AM,64.9,57.9,78,29.79,10.0,SSW,10.4,-,N/A,,Clear,200,2012-10-15 12:54:00
9:54 AM,66.9,57.9,73,29.78,10.0,SSW,8.1,-,N/A,,Clear,210,2012-10-15 13:54:00
10:54 AM,70.0,59.0,68,29.76,10.0,SSW,6.9,-,N/A,,Clear,200,2012-10-15 14:54:00
11:54 AM,72.0,59.0,64,29.74,10.0,SSW,13.8,21.9,N/A,,Partly Cloudy,210,2012-10-15 15:54:00
12:54 PM,73.9,59.0,59,29.71,10.0,SSW,15.0,24.2,N/A,,Clear,210,2012-10-15 16:54:00
1:54 PM,75.9,59.0,56,29.68,10.0,SSW,13.8,24.2,N/A,,Clear,210,2012-10-15 17:54:00
2:54 PM,77.0,59.0,54,29.67,10.0,SSW,15.0,25.3,N/A,,Partly Cloudy,210,2012-10-15 18:54:00
3:54 PM,75.0,59.0,57,29.66,10.0,SSW,9.2,23.0,N/A,,Mostly Cloudy,210,2012-10-15 19:54:00
4:54 PM,73.0,57.9,59,29.65,10.0,SSW,10.4,-,N/A,,Mostly Cloudy,200,2012-10-15 20:54:00
5:54 PM,72.0,57.9,61,29.65,10.0,South,9.2,18.4,N/A,,Mostly Cloudy,190,2012-10-15 21:54:00
6:54 PM,70.0,59.0,68,29.64,10.0,South,6.9,-,N/A,,Overcast,180,2012-10-15 22:54:00
7:54 PM,68.0,57.9,70,29.64,10.0,South,6.9,-,N/A,,Overcast,170,2012-10-15 23:54:00
8:54 PM,66.9,59.0,76,29.64,10.0,SSW,11.5,18.4,N/A,,Overcast,200,2012-10-16 00:54:00
9:18 PM,66.2,59.0,78,29.66,4.0,West,12.7,-,0.03,Rain,Light Rain,260,2012-10-16 01:18:00
9:23 PM,64.4,59.0,83,29.65,2.5,West,11.5,18.4,0.06,Rain,Heavy Rain,260,2012-10-16 01:23:00
9:34 PM,62.6,57.2,82,29.66,7.0,SW,5.8,-,0.07,Rain,Light Rain,230,2012-10-16 01:34:00
9:54 PM,63.0,59.0,87,29.65,10.0,Calm,Calm,-,0.07,Rain,Light Rain,0,2012-10-16 01:54:00
10:54 PM,63.0,59.0,87,29.63,10.0,Calm,Calm,-,0.00,,Partly Cloudy,0,2012-10-16 02:54:00
11:34 PM,62.6,59.0,88,29.62,10.0,Calm,Calm,-,N/A,,Overcast,0,2012-10-16 03:34:00
11:54 PM,62.1,59.0,90,29.62,9.0,Calm,Calm,-,N/A,,Overcast,0,2012-10-16 03:54:00